EZY25DT GMMX-EGBB

Flight info

Callsign EZY25DT
Flight time 3h 11m
Altitude 34000
Route MABAP UR722 MARJA/N0442F360 UR722 AMSEL DCT INBOM DCT PINEK DCT KORUL DCT XIDAN DCT ERPOM DCT DOLUR/N0435F370 DCT UNFIT DCT INFEC/N0433F350 DCT ICOSA DCT ZIPWE/N0366F230 L180 FIGZI
Aircraft A320/M-SDE3FGHIRWY/LB1

Departure

Time 2026-04-29 12:49
Airport Marrakesh Menara Airport (GMMX)

Arrival

Time 2026-04-29 16:00
Airport Birmingham Airport (EGBB)
Time Latitude Longitude Altitude Speed Heading
2026-04-29 11:57 31.60032 -8.02316 1550 ft 0 kts 273°
2026-04-29 12:37 31.60032 -8.02311 1549 ft 3 kts 271°
2026-04-29 12:37 31.60037 -8.02284 1549 ft 4 kts 230°
2026-04-29 12:37 31.60044 -8.02266 1549 ft 4 kts 275°
2026-04-29 12:37 31.60040 -8.02237 1549 ft 4 kts 310°
2026-04-29 12:38 31.60026 -8.02233 1549 ft 4 kts 10°
2026-04-29 12:38 31.60019 -8.02234 1549 ft 0 kts
2026-04-29 12:40 31.60036 -8.02232 1549 ft 6 kts
2026-04-29 12:40 31.60093 -8.02224 1549 ft 11 kts
2026-04-29 12:41 31.60176 -8.02212 1549 ft 13 kts
2026-04-29 12:41 31.60265 -8.02205 1549 ft 13 kts
2026-04-29 12:41 31.60354 -8.02196 1549 ft 8 kts
2026-04-29 12:41 31.60392 -8.02223 1549 ft 7 kts 292°
2026-04-29 12:42 31.60402 -8.02312 1549 ft 13 kts 276°
2026-04-29 12:42 31.60412 -8.02421 1549 ft 14 kts 275°
2026-04-29 12:42 31.60420 -8.02536 1549 ft 15 kts 276°
2026-04-29 12:42 31.60432 -8.02658 1549 ft 15 kts 276°
2026-04-29 12:43 31.60442 -8.02787 1549 ft 16 kts 276°
2026-04-29 12:43 31.60454 -8.02922 1549 ft 17 kts 276°
2026-04-29 12:43 31.60467 -8.03063 1549 ft 18 kts 275°
2026-04-29 12:43 31.60479 -8.03212 1545 ft 19 kts 276°
2026-04-29 12:44 31.60493 -8.03367 1548 ft 20 kts 276°
2026-04-29 12:44 31.60507 -8.03529 1548 ft 20 kts 276°
2026-04-29 12:44 31.60522 -8.03696 1548 ft 21 kts 276°
2026-04-29 12:44 31.60537 -8.03869 1547 ft 22 kts 275°
2026-04-29 12:45 31.60553 -8.04046 1547 ft 22 kts 276°
2026-04-29 12:45 31.60569 -8.04225 1543 ft 22 kts 276°
2026-04-29 12:45 31.60585 -8.04408 1539 ft 23 kts 276°
2026-04-29 12:45 31.60603 -8.04595 1544 ft 23 kts 276°
2026-04-29 12:46 31.60616 -8.04760 1538 ft 19 kts 276°
2026-04-29 12:46 31.60628 -8.04902 1539 ft 17 kts 276°
2026-04-29 12:46 31.60640 -8.05037 1547 ft 14 kts 275°
2026-04-29 12:46 31.60648 -8.05134 1547 ft 10 kts 275°
2026-04-29 12:47 31.60658 -8.05219 1537 ft 11 kts 285°
2026-04-29 12:47 31.60726 -8.05253 1534 ft 14 kts
2026-04-29 12:47 31.60802 -8.05232 1529 ft 5 kts 23°
2026-04-29 12:47 31.60824 -8.05204 1529 ft 4 kts 69°
2026-04-29 12:48 31.60824 -8.05157 1532 ft 14 kts 96°
2026-04-29 12:48 31.60793 -8.04799 1534 ft 80 kts 96°
2026-04-29 12:48 31.60713 -8.03906 1536 ft 138 kts 96°
2026-04-29 12:48 31.60599 -8.02589 1576 ft 182 kts 96°
2026-04-29 12:49 31.60369 -8.01148 2251 ft 178 kts 108°
2026-04-29 12:49 31.59869 -7.99808 2915 ft 184 kts 115°
2026-04-29 12:49 31.59269 -7.98392 3203 ft 205 kts 116°
2026-04-29 12:49 31.58604 -7.96814 3423 ft 226 kts 115°
2026-04-29 12:50 31.57890 -7.95074 3733 ft 245 kts 115°
2026-04-29 12:50 31.57160 -7.93249 4438 ft 249 kts 114°
2026-04-29 12:50 31.56440 -7.91395 5193 ft 251 kts 112°
2026-04-29 12:50 31.56059 -7.89409 5908 ft 254 kts 90°
2026-04-29 12:51 31.56361 -7.87366 6608 ft 257 kts 68°
2026-04-29 12:51 31.57312 -7.85584 7243 ft 262 kts 45°
2026-04-29 12:51 31.58795 -7.84332 7866 ft 267 kts 22°
2026-04-29 12:51 31.60598 -7.83827 8504 ft 270 kts 359°
2026-04-29 12:52 31.62446 -7.84188 9141 ft 272 kts 335°
2026-04-29 12:52 31.64027 -7.85376 9784 ft 271 kts 311°
2026-04-29 12:52 31.65195 -7.87112 10387 ft 272 kts 303°
2026-04-29 12:52 31.66314 -7.88916 11033 ft 274 kts 303°
2026-04-29 12:53 31.67430 -7.90704 11666 ft 276 kts 303°
2026-04-29 12:53 31.68571 -7.92529 12316 ft 278 kts 304°
2026-04-29 12:53 31.69724 -7.94371 12961 ft 280 kts 304°
2026-04-29 12:53 31.70885 -7.96221 13610 ft 282 kts 304°
2026-04-29 12:54 31.72052 -7.98079 14179 ft 284 kts 304°
2026-04-29 12:54 31.73231 -7.99958 14750 ft 286 kts 304°
2026-04-29 12:54 31.74412 -8.01846 15317 ft 288 kts 304°
2026-04-29 12:54 31.75599 -8.03747 15891 ft 289 kts 303°
2026-04-29 12:55 31.76790 -8.05660 16461 ft 291 kts 303°
2026-04-29 12:55 31.77988 -8.07586 17024 ft 293 kts 303°
2026-04-29 12:55 31.79194 -8.09522 17592 ft 294 kts 303°
2026-04-29 12:55 31.80410 -8.11472 18152 ft 296 kts 303°
2026-04-29 12:56 31.81685 -8.13389 18645 ft 300 kts 311°
2026-04-29 12:56 31.83325 -8.14939 19127 ft 307 kts 326°
2026-04-29 12:56 31.85338 -8.15961 19332 ft 326 kts 342°
2026-04-29 12:56 31.87641 -8.16369 19455 ft 344 kts 350°
2026-04-29 12:57 31.90072 -8.16686 19577 ft 359 kts 350°
2026-04-29 12:57 31.92601 -8.17021 19699 ft 373 kts 350°
2026-04-29 12:57 31.95193 -8.17370 19818 ft 387 kts 350°
2026-04-29 12:57 31.97903 -8.17741 20050 ft 396 kts 350°
2026-04-29 12:58 32.00658 -8.18114 20452 ft 400 kts 350°
2026-04-29 12:58 32.03439 -8.18489 20907 ft 404 kts 350°
2026-04-29 12:58 32.06241 -8.18867 21364 ft 407 kts 350°
2026-04-29 12:58 32.09063 -8.19251 21824 ft 410 kts 350°
2026-04-29 12:59 32.11915 -8.19555 22278 ft 415 kts 355°
2026-04-29 12:59 32.14823 -8.19339 22714 ft 421 kts
2026-04-29 12:59 32.17737 -8.18857 23137 ft 424 kts
2026-04-29 12:59 32.20666 -8.18377 23544 ft 427 kts
2026-04-29 13:00 32.23620 -8.17896 23892 ft 430 kts
2026-04-29 13:00 32.26599 -8.17412 24233 ft 432 kts
2026-04-29 13:00 32.29581 -8.16929 24567 ft 435 kts
2026-04-29 13:00 32.32586 -8.16443 24898 ft 437 kts
2026-04-29 13:01 32.35606 -8.15953 25229 ft 439 kts
2026-04-29 13:01 32.38640 -8.15460 25552 ft 441 kts
2026-04-29 13:01 32.41688 -8.14964 25869 ft 443 kts
2026-04-29 13:01 32.44750 -8.14466 26185 ft 445 kts
2026-04-29 13:02 32.47827 -8.13965 26494 ft 447 kts
2026-04-29 13:02 32.50924 -8.13462 26805 ft 449 kts
2026-04-29 13:02 32.54031 -8.12960 27095 ft 452 kts
2026-04-29 13:02 32.57151 -8.12452 27383 ft 454 kts
2026-04-29 13:03 32.60286 -8.11940 27675 ft 456 kts
2026-04-29 13:03 32.63392 -8.11431 27968 ft 458 kts
2026-04-29 13:03 32.66559 -8.10909 28254 ft 459 kts
2026-04-29 13:03 32.69725 -8.10388 28530 ft 461 kts
2026-04-29 13:04 32.72919 -8.09863 28800 ft 463 kts
2026-04-29 13:04 32.76118 -8.09339 29054 ft 465 kts
2026-04-29 13:04 32.79331 -8.08812 29312 ft 467 kts
2026-04-29 13:04 32.82557 -8.08283 29552 ft 469 kts
2026-04-29 13:05 32.85795 -8.07752 29791 ft 471 kts
2026-04-29 13:05 32.89052 -8.07215 30014 ft 472 kts
2026-04-29 13:05 32.92287 -8.06434 30214 ft 477 kts 13°
2026-04-29 13:05 32.95411 -8.05082 30401 ft 482 kts 22°
2026-04-29 13:06 32.98389 -8.03206 30665 ft 483 kts 27°
2026-04-29 13:06 33.01317 -8.01261 30936 ft 483 kts 27°
2026-04-29 13:06 33.04262 -7.99321 31194 ft 482 kts 26°
2026-04-29 13:06 33.07195 -7.97400 31446 ft 482 kts 26°
2026-04-29 13:07 33.10136 -7.95480 31699 ft 482 kts 26°
2026-04-29 13:07 33.13075 -7.93559 31960 ft 481 kts 26°
2026-04-29 13:07 33.16010 -7.91635 32205 ft 481 kts 26°
2026-04-29 13:07 33.18902 -7.89733 32445 ft 481 kts 26°
2026-04-29 13:08 33.21830 -7.87800 32703 ft 481 kts 26°
2026-04-29 13:08 33.24756 -7.85866 32961 ft 480 kts 26°
2026-04-29 13:08 33.27679 -7.83933 33207 ft 480 kts 26°
2026-04-29 13:08 33.30602 -7.82003 33450 ft 480 kts 26°
2026-04-29 13:09 33.33523 -7.80071 33699 ft 480 kts 26°
2026-04-29 13:09 33.36441 -7.78136 33913 ft 480 kts 26°
2026-04-29 13:09 33.39350 -7.76203 33972 ft 476 kts 26°
2026-04-29 13:10 33.45116 -7.72376 33992 ft 473 kts 26°
2026-04-29 13:10 33.51059 -7.69177 33975 ft 465 kts 11°
2026-04-29 13:11 33.57383 -7.68214 33947 ft 454 kts 353°
2026-04-29 13:11 33.63662 -7.68774 33947 ft 452 kts 351°
2026-04-29 13:12 33.69943 -7.69347 33954 ft 453 kts 351°
2026-04-29 13:12 33.76231 -7.69910 33988 ft 452 kts 351°
2026-04-29 13:13 33.82471 -7.70476 33982 ft 452 kts 351°
2026-04-29 13:13 33.88736 -7.71060 33977 ft 451 kts 351°
2026-04-29 13:14 33.95006 -7.71647 33978 ft 451 kts 351°
2026-04-29 13:14 34.01266 -7.72227 33998 ft 451 kts 350°
2026-04-29 13:15 34.07518 -7.72801 33991 ft 450 kts 350°
2026-04-29 13:15 34.13767 -7.73374 34007 ft 452 kts 350°
2026-04-29 13:15 34.16907 -7.73663 34135 ft 453 kts 350°
2026-04-29 13:16 34.20056 -7.73951 34310 ft 454 kts 351°
2026-04-29 13:16 34.23218 -7.74206 34526 ft 454 kts 351°
2026-04-29 13:16 34.26376 -7.74423 34728 ft 454 kts 351°
2026-04-29 13:16 34.29533 -7.74621 34923 ft 454 kts 351°
2026-04-29 13:17 34.32687 -7.74817 35124 ft 454 kts 351°
2026-04-29 13:17 34.35837 -7.75022 35294 ft 453 kts 351°
2026-04-29 13:17 34.38984 -7.75236 35464 ft 453 kts 351°
2026-04-29 13:17 34.42134 -7.75453 35638 ft 452 kts 351°
2026-04-29 13:18 34.45234 -7.75664 35800 ft 452 kts 351°
2026-04-29 13:18 34.47771 -7.75838 35924 ft 452 kts 351°
2026-04-29 13:18 34.50911 -7.76058 35974 ft 452 kts 351°
2026-04-29 13:19 34.57188 -7.76502 35967 ft 451 kts 351°
2026-04-29 13:19 34.63454 -7.76944 35966 ft 451 kts 351°
2026-04-29 13:20 34.69713 -7.77377 35966 ft 451 kts 351°
2026-04-29 13:20 34.75984 -7.77825 35990 ft 451 kts 350°
2026-04-29 13:21 34.82238 -7.78339 35984 ft 450 kts 349°
2026-04-29 13:21 34.88486 -7.78882 35981 ft 450 kts 349°
2026-04-29 13:22 34.94734 -7.79417 35981 ft 450 kts 349°
2026-04-29 13:22 35.00984 -7.79930 35999 ft 450 kts 349°
2026-04-29 13:23 35.06173 -7.80359 35991 ft 450 kts 349°
2026-04-29 13:23 35.12425 -7.80886 35982 ft 450 kts 349°
2026-04-29 13:24 35.18673 -7.81419 35979 ft 449 kts 349°
2026-04-29 13:24 35.24915 -7.81943 35999 ft 450 kts 349°
2026-04-29 13:25 35.31120 -7.82453 35992 ft 450 kts 349°
2026-04-29 13:25 35.40478 -7.83246 35978 ft 449 kts 349°
2026-04-29 13:26 35.46705 -7.83798 35975 ft 449 kts 349°
2026-04-29 13:26 35.52936 -7.84365 35985 ft 449 kts 349°
2026-04-29 13:27 35.59166 -7.84933 35982 ft 449 kts 349°
2026-04-29 13:27 35.65396 -7.85487 35975 ft 449 kts 349°
2026-04-29 13:28 35.71631 -7.86046 35972 ft 449 kts 349°
2026-04-29 13:28 35.77856 -7.86614 35970 ft 448 kts 349°
2026-04-29 13:29 35.84081 -7.87186 35966 ft 448 kts 349°
2026-04-29 13:29 35.90305 -7.87757 35965 ft 448 kts 349°
2026-04-29 13:30 35.96531 -7.88319 35965 ft 448 kts 349°
2026-04-29 13:30 36.02752 -7.88908 35981 ft 448 kts 349°
2026-04-29 13:31 36.08959 -7.89534 35978 ft 448 kts 348°
2026-04-29 13:31 36.15172 -7.90158 35970 ft 448 kts 349°
2026-04-29 13:32 36.21384 -7.90773 35968 ft 448 kts 349°
2026-04-29 13:32 36.27596 -7.91385 35987 ft 448 kts 348°
2026-04-29 13:33 36.33806 -7.92000 35970 ft 447 kts 348°
2026-04-29 13:33 36.39972 -7.92609 35960 ft 447 kts 348°
2026-04-29 13:34 36.46184 -7.93225 35960 ft 447 kts 348°
2026-04-29 13:34 36.52385 -7.93841 35967 ft 446 kts 348°
2026-04-29 13:35 36.58581 -7.94454 35961 ft 446 kts 348°
2026-04-29 13:35 36.64766 -7.95075 35958 ft 446 kts 348°
2026-04-29 13:36 36.70950 -7.95695 35955 ft 446 kts 348°
2026-04-29 13:36 36.77135 -7.96313 35975 ft 446 kts 348°
2026-04-29 13:37 36.83316 -7.96938 35968 ft 445 kts 348°
2026-04-29 13:37 36.89496 -7.97559 35940 ft 445 kts 348°
2026-04-29 13:38 36.95639 -7.98177 35936 ft 445 kts 348°
2026-04-29 13:38 37.01823 -7.98804 35954 ft 445 kts 348°
2026-04-29 13:39 37.08000 -7.99428 35944 ft 445 kts 348°
2026-04-29 13:39 37.14177 -8.00055 35940 ft 445 kts 348°
2026-04-29 13:40 37.20328 -8.00680 35936 ft 445 kts 348°
2026-04-29 13:40 37.26514 -8.01306 35950 ft 445 kts 348°
2026-04-29 13:41 37.32686 -8.01932 35940 ft 445 kts 348°
2026-04-29 13:41 37.38862 -8.02557 35931 ft 445 kts 348°
2026-04-29 13:42 37.45038 -8.03191 35954 ft 445 kts 348°
2026-04-29 13:42 37.51221 -8.03824 35941 ft 445 kts 348°
2026-04-29 13:43 37.57399 -8.04453 35930 ft 445 kts 348°
2026-04-29 13:43 37.63577 -8.05088 35926 ft 445 kts 348°
2026-04-29 13:44 37.69755 -8.05728 35940 ft 445 kts 348°
2026-04-29 13:44 37.75893 -8.06362 35929 ft 446 kts 348°
2026-04-29 13:45 37.82118 -8.06998 35918 ft 446 kts 348°
2026-04-29 13:45 37.88253 -8.07630 35914 ft 446 kts 348°
2026-04-29 13:46 37.94441 -8.08270 35913 ft 446 kts 348°
2026-04-29 13:46 38.00627 -8.08921 35896 ft 446 kts 347°
2026-04-29 13:47 38.06808 -8.09683 35895 ft 446 kts 347°
2026-04-29 13:47 38.12978 -8.10496 35895 ft 446 kts 347°
2026-04-29 13:48 38.19155 -8.11290 35897 ft 446 kts 347°
2026-04-29 13:48 38.25337 -8.12062 35899 ft 446 kts 347°
2026-04-29 13:49 38.31522 -8.12829 35901 ft 446 kts 347°
2026-04-29 13:49 38.37706 -8.13601 35927 ft 446 kts 347°
2026-04-29 13:50 38.43892 -8.14387 35903 ft 447 kts 347°
2026-04-29 13:50 38.50085 -8.15178 35893 ft 447 kts 347°
2026-04-29 13:51 38.56247 -8.15966 35890 ft 448 kts 347°
2026-04-29 13:51 38.62450 -8.16753 35921 ft 448 kts 347°
2026-04-29 13:52 38.68670 -8.17542 35893 ft 449 kts 347°
2026-04-29 13:52 38.74904 -8.18331 35881 ft 450 kts 347°
2026-04-29 13:53 38.81138 -8.19130 35878 ft 450 kts 347°
2026-04-29 13:53 38.87380 -8.19928 35886 ft 451 kts 348°
2026-04-29 13:54 38.93629 -8.20727 35877 ft 451 kts 348°
2026-04-29 13:54 38.99882 -8.21528 35877 ft 452 kts 348°
2026-04-29 13:55 39.06138 -8.22337 35872 ft 452 kts 348°
2026-04-29 13:55 39.12397 -8.23143 35890 ft 452 kts 349°
2026-04-29 13:56 39.18620 -8.23942 35882 ft 452 kts 349°
2026-04-29 13:56 39.24884 -8.24760 35878 ft 452 kts 349°
2026-04-29 13:57 39.31157 -8.25577 35897 ft 453 kts 350°
2026-04-29 13:57 39.36378 -8.26251 35881 ft 453 kts 350°
2026-04-29 13:58 39.43717 -8.27204 35875 ft 453 kts 350°
2026-04-29 13:58 39.49988 -8.28020 35874 ft 453 kts 349°
2026-04-29 13:59 39.56269 -8.28842 35885 ft 454 kts 350°
2026-04-29 13:59 39.62558 -8.29660 35878 ft 454 kts 350°
2026-04-29 14:00 39.68856 -8.30483 35872 ft 454 kts 350°
2026-04-29 14:00 39.75116 -8.31308 35882 ft 455 kts 351°
2026-04-29 14:01 39.81414 -8.32127 35877 ft 455 kts 351°
2026-04-29 14:01 39.87715 -8.32948 35873 ft 455 kts 351°
2026-04-29 14:02 39.94013 -8.33784 35870 ft 455 kts 351°
2026-04-29 14:02 40.00322 -8.34626 35892 ft 455 kts 351°
2026-04-29 14:03 40.06619 -8.35469 35881 ft 454 kts 351°
2026-04-29 14:03 40.12907 -8.36300 35873 ft 454 kts 351°
2026-04-29 14:04 40.19190 -8.37130 35878 ft 454 kts 351°
2026-04-29 14:04 40.25428 -8.37970 35871 ft 454 kts 351°
2026-04-29 14:05 40.31711 -8.38803 35863 ft 454 kts 351°
2026-04-29 14:05 40.38008 -8.39641 35860 ft 454 kts 351°
2026-04-29 14:06 40.44292 -8.40484 35858 ft 454 kts 351°
2026-04-29 14:06 40.50580 -8.41337 35857 ft 454 kts 351°
2026-04-29 14:07 40.56863 -8.42181 35858 ft 454 kts 351°
2026-04-29 14:07 40.63147 -8.43022 35868 ft 454 kts 352°
2026-04-29 14:08 40.69396 -8.43864 35863 ft 454 kts 352°
2026-04-29 14:08 40.75685 -8.44716 35861 ft 454 kts 352°
2026-04-29 14:09 40.81968 -8.45566 35850 ft 454 kts 352°
2026-04-29 14:09 40.88248 -8.46416 35858 ft 454 kts 352°
2026-04-29 14:10 40.94488 -8.47270 35856 ft 453 kts 352°
2026-04-29 14:10 41.00766 -8.48123 35852 ft 453 kts 352°
2026-04-29 14:11 41.06020 -8.48839 35861 ft 453 kts 352°
2026-04-29 14:11 41.12285 -8.49692 35858 ft 452 kts 352°
2026-04-29 14:12 41.18546 -8.50548 35854 ft 452 kts 352°
2026-04-29 14:12 41.24763 -8.51399 35851 ft 452 kts 352°
2026-04-29 14:13 41.31024 -8.52267 35852 ft 452 kts 353°
2026-04-29 14:13 41.37284 -8.53131 35850 ft 452 kts 353°
2026-04-29 14:14 41.43540 -8.53990 35850 ft 452 kts 353°
2026-04-29 14:14 41.49797 -8.54852 35846 ft 452 kts 353°
2026-04-29 14:15 41.56052 -8.55720 35848 ft 452 kts 353°
2026-04-29 14:15 41.62302 -8.56591 35851 ft 452 kts 353°
2026-04-29 14:16 41.68557 -8.57469 35857 ft 452 kts 353°
2026-04-29 14:16 41.74810 -8.58340 35851 ft 452 kts 353°
2026-04-29 14:17 41.81064 -8.59193 35847 ft 452 kts 356°
2026-04-29 14:17 41.87304 -8.58390 35841 ft 453 kts 15°
2026-04-29 14:18 41.93168 -8.55466 35844 ft 452 kts 21°
2026-04-29 14:18 41.99023 -8.52332 35842 ft 452 kts 21°
2026-04-29 14:19 42.04867 -8.49210 35834 ft 452 kts 21°
2026-04-29 14:19 42.10721 -8.46067 35835 ft 452 kts 21°
2026-04-29 14:20 42.16571 -8.42921 35828 ft 453 kts 22°
2026-04-29 14:20 42.22423 -8.39765 35822 ft 453 kts 22°
2026-04-29 14:21 42.28272 -8.36592 35823 ft 453 kts 22°
2026-04-29 14:21 42.34131 -8.33414 35808 ft 454 kts 22°
2026-04-29 14:22 42.39989 -8.30228 35790 ft 455 kts 22°
2026-04-29 14:22 42.45869 -8.27026 35791 ft 456 kts 22°
2026-04-29 14:23 42.51759 -8.23816 35788 ft 456 kts 22°
2026-04-29 14:23 42.57627 -8.20614 35791 ft 457 kts 22°
2026-04-29 14:24 42.63522 -8.17390 35790 ft 457 kts 22°
2026-04-29 14:24 42.69418 -8.14159 35795 ft 457 kts 22°
2026-04-29 14:25 42.75320 -8.10914 35803 ft 457 kts 22°
2026-04-29 14:25 42.81218 -8.07664 35790 ft 458 kts 22°
2026-04-29 14:26 42.87135 -8.04403 35786 ft 459 kts 22°
2026-04-29 14:26 42.93059 -8.01130 35790 ft 460 kts 22°
2026-04-29 14:27 42.99001 -7.97836 35791 ft 460 kts 22°
2026-04-29 14:28 43.07868 -7.92904 35784 ft 461 kts 22°
2026-04-29 14:28 43.13816 -7.89582 35786 ft 461 kts 22°
2026-04-29 14:29 43.19758 -7.86269 35795 ft 461 kts 22°
2026-04-29 14:29 43.25706 -7.82941 35803 ft 461 kts 22°
2026-04-29 14:30 43.31639 -7.79605 35801 ft 461 kts 22°
2026-04-29 14:30 43.37572 -7.76275 35811 ft 460 kts 22°
2026-04-29 14:31 43.43496 -7.72947 35817 ft 460 kts 22°
2026-04-29 14:31 43.49420 -7.69606 35819 ft 459 kts 22°
2026-04-29 14:32 43.55325 -7.66270 35817 ft 459 kts 22°
2026-04-29 14:32 43.61238 -7.62925 35821 ft 459 kts 21°
2026-04-29 14:33 43.67142 -7.59568 35819 ft 459 kts 22°
2026-04-29 14:33 43.73024 -7.56223 35804 ft 460 kts 22°
2026-04-29 14:34 43.78948 -7.52851 35812 ft 461 kts 22°
2026-04-29 14:34 43.84883 -7.49451 35818 ft 462 kts 22°
2026-04-29 14:35 43.90823 -7.46044 35823 ft 462 kts 22°
2026-04-29 14:35 43.96766 -7.42634 35827 ft 462 kts 22°
2026-04-29 14:36 44.02709 -7.39215 35840 ft 462 kts 22°
2026-04-29 14:36 44.08653 -7.35785 35837 ft 463 kts 22°
2026-04-29 14:37 44.14611 -7.32344 35836 ft 463 kts 22°
2026-04-29 14:37 44.20557 -7.28904 35846 ft 463 kts 21°
2026-04-29 14:38 44.26505 -7.25451 35836 ft 463 kts 21°
2026-04-29 14:38 44.32459 -7.21996 35833 ft 463 kts 21°
2026-04-29 14:39 44.38382 -7.18541 35812 ft 464 kts 22°
2026-04-29 14:39 44.44348 -7.15055 35824 ft 465 kts 22°
2026-04-29 14:40 44.50324 -7.11553 35826 ft 466 kts 22°
2026-04-29 14:40 44.56310 -7.08048 35828 ft 466 kts 22°
2026-04-29 14:41 44.62298 -7.04528 35828 ft 467 kts 22°
2026-04-29 14:41 44.68289 -7.01004 35831 ft 467 kts 22°
2026-04-29 14:42 44.74281 -6.97469 35833 ft 467 kts 22°
2026-04-29 14:42 44.80278 -6.93915 35848 ft 467 kts 22°
2026-04-29 14:43 44.86422 -6.91064 35843 ft 465 kts 11°
2026-04-29 14:43 44.92752 -6.89137 35840 ft 465 kts 11°
2026-04-29 14:44 44.99088 -6.87207 35837 ft 466 kts 11°
2026-04-29 14:44 45.05398 -6.85276 35832 ft 467 kts 11°
2026-04-29 14:45 45.11760 -6.83315 35829 ft 468 kts 11°
2026-04-29 14:45 45.18123 -6.81357 35831 ft 468 kts 11°
2026-04-29 14:46 45.24493 -6.79396 35843 ft 469 kts 11°
2026-04-29 14:46 45.30880 -6.77418 35843 ft 469 kts 11°
2026-04-29 14:47 45.37274 -6.75436 35843 ft 470 kts 11°
2026-04-29 14:47 45.43623 -6.73460 35848 ft 470 kts 11°
2026-04-29 14:48 45.50023 -6.71464 35845 ft 471 kts 11°
2026-04-29 14:48 45.56427 -6.69450 35845 ft 471 kts 11°
2026-04-29 14:49 45.62844 -6.67438 35854 ft 472 kts 11°
2026-04-29 14:49 45.69258 -6.65438 35831 ft 473 kts 11°
2026-04-29 14:50 45.75693 -6.63412 35835 ft 473 kts 11°
2026-04-29 14:50 45.82127 -6.61385 35849 ft 474 kts 12°
2026-04-29 14:51 45.88557 -6.59348 35844 ft 474 kts 12°
2026-04-29 14:51 45.95002 -6.57297 35850 ft 474 kts 12°
2026-04-29 14:52 46.01454 -6.55260 35858 ft 475 kts 12°
2026-04-29 14:52 46.07905 -6.53219 35858 ft 475 kts 12°
2026-04-29 14:53 46.14362 -6.51146 35857 ft 475 kts 12°
2026-04-29 14:53 46.20822 -6.49063 35875 ft 476 kts 12°
2026-04-29 14:54 46.27289 -6.46984 35871 ft 475 kts 12°
2026-04-29 14:54 46.33748 -6.44913 35871 ft 475 kts 12°
2026-04-29 14:55 46.40162 -6.42856 35858 ft 475 kts 12°
2026-04-29 14:55 46.46629 -6.40775 35858 ft 476 kts 12°
2026-04-29 14:56 46.53088 -6.38680 35859 ft 476 kts 12°
2026-04-29 14:56 46.59555 -6.36576 35866 ft 476 kts 13°
2026-04-29 14:57 46.64934 -6.34817 35865 ft 476 kts 12°
2026-04-29 14:57 46.71405 -6.32710 35868 ft 477 kts 12°
2026-04-29 14:58 46.77878 -6.30599 35870 ft 477 kts 12°
2026-04-29 14:58 46.84352 -6.28494 35883 ft 476 kts 13°
2026-04-29 14:59 46.90813 -6.26370 35886 ft 476 kts 13°
2026-04-29 14:59 46.97278 -6.24238 35884 ft 476 kts 13°
2026-04-29 15:00 47.03741 -6.22091 35895 ft 476 kts 14°
2026-04-29 15:00 47.10051 -6.19181 35892 ft 475 kts 19°
2026-04-29 15:01 47.16345 -6.16153 35872 ft 475 kts 19°
2026-04-29 15:01 47.22591 -6.13137 35876 ft 476 kts 19°
2026-04-29 15:02 47.28880 -6.10078 35886 ft 476 kts 19°
2026-04-29 15:02 47.35172 -6.07031 35898 ft 476 kts 19°
2026-04-29 15:03 47.41460 -6.03977 35904 ft 476 kts 19°
2026-04-29 15:03 47.47752 -6.00908 35912 ft 475 kts 20°
2026-04-29 15:04 47.54020 -5.97841 35916 ft 475 kts 20°
2026-04-29 15:04 47.60296 -5.94760 35914 ft 474 kts 20°
2026-04-29 15:05 47.66561 -5.91672 35925 ft 474 kts 20°
2026-04-29 15:05 47.72784 -5.88610 35886 ft 474 kts 20°
2026-04-29 15:06 47.79046 -5.85528 35902 ft 474 kts 20°
2026-04-29 15:06 47.85306 -5.82428 35913 ft 474 kts 20°
2026-04-29 15:07 47.91565 -5.79322 35924 ft 474 kts 20°
2026-04-29 15:07 47.97821 -5.76212 35924 ft 474 kts 20°
2026-04-29 15:08 48.04080 -5.73086 35927 ft 474 kts 20°
2026-04-29 15:08 48.10297 -5.69971 35936 ft 474 kts 21°
2026-04-29 15:09 48.16547 -5.66836 35929 ft 474 kts 21°
2026-04-29 15:09 48.22795 -5.63696 35929 ft 474 kts 21°
2026-04-29 15:10 48.29050 -5.60539 35931 ft 474 kts 21°
2026-04-29 15:10 48.35298 -5.57381 35913 ft 474 kts 21°
2026-04-29 15:11 48.41545 -5.54218 35921 ft 474 kts 21°
2026-04-29 15:11 48.47796 -5.51044 35935 ft 473 kts 21°
2026-04-29 15:12 48.53989 -5.47878 35939 ft 473 kts 21°
2026-04-29 15:12 48.60218 -5.44694 35946 ft 472 kts 21°
2026-04-29 15:13 48.66441 -5.41513 35953 ft 472 kts 21°
2026-04-29 15:13 48.72665 -5.38325 35962 ft 472 kts 21°
2026-04-29 15:14 48.78878 -5.35127 35967 ft 472 kts 21°
2026-04-29 15:14 48.85098 -5.31913 35968 ft 472 kts 21°
2026-04-29 15:15 48.91313 -5.28696 35967 ft 472 kts 21°
2026-04-29 15:15 48.97528 -5.25465 35954 ft 472 kts 21°
2026-04-29 15:16 49.03755 -5.22463 35966 ft 473 kts 17°
2026-04-29 15:16 49.10161 -5.20082 35980 ft 474 kts 14°
2026-04-29 15:17 49.16599 -5.17872 35989 ft 474 kts 15°
2026-04-29 15:17 49.23002 -5.15523 35987 ft 474 kts 16°
2026-04-29 15:18 49.29403 -5.13048 36000 ft 474 kts 17°
2026-04-29 15:18 49.35799 -5.10568 36006 ft 474 kts 16°
2026-04-29 15:19 49.42199 -5.08124 36011 ft 474 kts 16°
2026-04-29 15:19 49.48595 -5.05668 36005 ft 474 kts 16°
2026-04-29 15:20 49.55001 -5.03268 36012 ft 474 kts 15°
2026-04-29 15:20 49.61425 -5.00946 36024 ft 474 kts 15°
2026-04-29 15:21 49.67842 -4.98606 36022 ft 474 kts 16°
2026-04-29 15:21 49.74261 -4.96220 36034 ft 474 kts 16°
2026-04-29 15:22 49.80678 -4.93822 36043 ft 474 kts 16°
2026-04-29 15:22 49.87060 -4.91441 36035 ft 474 kts 16°
2026-04-29 15:23 49.93474 -4.89052 36056 ft 474 kts 16°
2026-04-29 15:23 49.99878 -4.86652 36073 ft 473 kts 16°
2026-04-29 15:24 50.06275 -4.84247 36067 ft 473 kts 16°
2026-04-29 15:24 50.12668 -4.81835 36069 ft 472 kts 16°
2026-04-29 15:25 50.19055 -4.79428 36081 ft 471 kts 16°
2026-04-29 15:25 50.25423 -4.77028 36086 ft 471 kts 16°
2026-04-29 15:26 50.31789 -4.74609 36085 ft 470 kts 16°
2026-04-29 15:26 50.38154 -4.72187 36094 ft 470 kts 17°
2026-04-29 15:27 50.44462 -4.69779 36092 ft 470 kts 17°
2026-04-29 15:27 50.50811 -4.67342 36085 ft 470 kts 17°
2026-04-29 15:28 50.57157 -4.64902 36052 ft 469 kts 17°
2026-04-29 15:28 50.63508 -4.62454 36068 ft 469 kts 17°
2026-04-29 15:29 50.69855 -4.60005 36080 ft 470 kts 17°
2026-04-29 15:30 50.82524 -4.55110 36095 ft 470 kts 17°
2026-04-29 15:30 50.88869 -4.52627 36104 ft 469 kts 17°
2026-04-29 15:31 50.95213 -4.50156 36109 ft 469 kts 17°
2026-04-29 15:31 51.01561 -4.47687 36118 ft 469 kts 17°
2026-04-29 15:32 51.07894 -4.45199 36125 ft 469 kts 17°
2026-04-29 15:32 51.14179 -4.42714 36123 ft 468 kts 17°
2026-04-29 15:33 51.20507 -4.40213 36117 ft 468 kts 17°
2026-04-29 15:33 51.26836 -4.37713 36130 ft 468 kts 17°
2026-04-29 15:34 51.33170 -4.35207 36135 ft 468 kts 17°
2026-04-29 15:34 51.39496 -4.32671 36146 ft 467 kts 20°
2026-04-29 15:35 51.45349 -4.28451 36123 ft 457 kts 37°
2026-04-29 15:35 51.48001 -4.25722 35978 ft 459 kts 37°
2026-04-29 15:35 51.50664 -4.22914 35714 ft 455 kts 41°
2026-04-29 15:35 51.53014 -4.19648 35341 ft 444 kts 52°
2026-04-29 15:36 51.54947 -4.15857 34814 ft 434 kts 62°
2026-04-29 15:36 51.56413 -4.11674 34293 ft 424 kts 72°
2026-04-29 15:36 51.57570 -4.07340 33724 ft 421 kts 73°
2026-04-29 15:36 51.58720 -4.03033 33217 ft 418 kts 73°
2026-04-29 15:37 51.59866 -3.98771 32705 ft 415 kts 73°
2026-04-29 15:37 51.61009 -3.94517 32207 ft 412 kts 73°
2026-04-29 15:37 51.62141 -3.90291 31691 ft 410 kts 74°
2026-04-29 15:37 51.63260 -3.86078 31144 ft 409 kts 74°
2026-04-29 15:38 51.64368 -3.81878 30675 ft 406 kts 74°
2026-04-29 15:38 51.65472 -3.77694 30179 ft 406 kts 74°
2026-04-29 15:38 51.66574 -3.73522 29660 ft 403 kts 74°
2026-04-29 15:38 51.67667 -3.69379 29180 ft 400 kts 73°
2026-04-29 15:39 51.68749 -3.65266 28724 ft 397 kts 73°
2026-04-29 15:39 51.69818 -3.61185 28255 ft 394 kts 73°
2026-04-29 15:39 51.70884 -3.57111 27771 ft 392 kts 73°
2026-04-29 15:39 51.71951 -3.53095 27328 ft 390 kts 72°
2026-04-29 15:40 51.73047 -3.49102 26852 ft 387 kts 71°
2026-04-29 15:40 51.74153 -3.45149 26427 ft 386 kts 71°
2026-04-29 15:40 51.75242 -3.41267 25973 ft 384 kts 71°
2026-04-29 15:40 51.76338 -3.37341 25474 ft 383 kts 71°
2026-04-29 15:41 51.77419 -3.33431 25024 ft 381 kts 71°
2026-04-29 15:41 51.78490 -3.29524 24530 ft 380 kts 71°
2026-04-29 15:41 51.79557 -3.25618 24043 ft 380 kts 70°
2026-04-29 15:41 51.80614 -3.21743 23588 ft 371 kts 71°
2026-04-29 15:42 51.81625 -3.17937 23000 ft 364 kts 72°
2026-04-29 15:42 51.82578 -3.14203 22527 ft 355 kts 73°
2026-04-29 15:42 51.83481 -3.10588 22083 ft 347 kts 73°
2026-04-29 15:42 51.84367 -3.07022 21644 ft 339 kts 73°
2026-04-29 15:43 51.85236 -3.03525 21208 ft 331 kts 73°
2026-04-29 15:43 51.86091 -3.00097 20778 ft 325 kts 73°
2026-04-29 15:43 51.86932 -2.96744 20358 ft 319 kts 74°
2026-04-29 15:43 51.87763 -2.93424 19936 ft 318 kts 74°
2026-04-29 15:44 51.88594 -2.90091 19504 ft 318 kts 74°
2026-04-29 15:44 51.89422 -2.86767 19087 ft 318 kts 74°
2026-04-29 15:44 51.90247 -2.83445 18660 ft 318 kts 74°
2026-04-29 15:44 51.91073 -2.80120 18070 ft 318 kts 74°
2026-04-29 15:45 51.91901 -2.76805 17651 ft 317 kts 74°
2026-04-29 15:45 51.92716 -2.73540 17254 ft 315 kts 74°
2026-04-29 15:45 51.93541 -2.70213 16865 ft 314 kts 74°
2026-04-29 15:45 51.94351 -2.66941 16461 ft 313 kts 74°
2026-04-29 15:46 51.95161 -2.63664 16063 ft 312 kts 74°
2026-04-29 15:46 51.96156 -2.60514 15669 ft 318 kts 61°
2026-04-29 15:46 51.97614 -2.57825 15269 ft 326 kts 49°
2026-04-29 15:46 51.99265 -2.55309 14865 ft 325 kts 49°
2026-04-29 15:47 52.00912 -2.52791 14461 ft 325 kts 50°
2026-04-29 15:47 52.02541 -2.50292 14037 ft 320 kts 49°
2026-04-29 15:47 52.04144 -2.47836 13607 ft 312 kts 49°
2026-04-29 15:47 52.05711 -2.45429 13216 ft 309 kts 49°
2026-04-29 15:48 52.07260 -2.43042 12923 ft 304 kts 49°
2026-04-29 15:48 52.08782 -2.40694 12636 ft 299 kts 49°
2026-04-29 15:48 52.09798 -2.39121 12441 ft 297 kts 49°
2026-04-29 15:48 52.11273 -2.36837 12149 ft 295 kts 49°
2026-04-29 15:49 52.12751 -2.34542 11878 ft 293 kts 49°
2026-04-29 15:49 52.14214 -2.32264 11590 ft 291 kts 49°
2026-04-29 15:49 52.15681 -2.29986 11308 ft 289 kts 49°
2026-04-29 15:49 52.17135 -2.27732 11030 ft 288 kts 49°
2026-04-29 15:50 52.18583 -2.25482 10750 ft 287 kts 49°
2026-04-29 15:50 52.20023 -2.23239 10463 ft 286 kts 49°
2026-04-29 15:50 52.21455 -2.21010 10200 ft 283 kts 49°
2026-04-29 15:50 52.22874 -2.18798 9893 ft 281 kts 49°
2026-04-29 15:51 52.24286 -2.16600 9621 ft 279 kts 49°
2026-04-29 15:51 52.25686 -2.14416 9344 ft 278 kts 49°
2026-04-29 15:51 52.27080 -2.12234 9067 ft 276 kts 49°
2026-04-29 15:51 52.28458 -2.10077 8811 ft 274 kts 49°
2026-04-29 15:52 52.29832 -2.07924 8543 ft 273 kts 49°
2026-04-29 15:52 52.31199 -2.05779 8274 ft 271 kts 49°
2026-04-29 15:52 52.32556 -2.03652 8015 ft 270 kts 49°
2026-04-29 15:52 52.33902 -2.01534 7739 ft 269 kts 49°
2026-04-29 15:53 52.35226 -1.99449 7415 ft 255 kts 50°
2026-04-29 15:53 52.36458 -1.97524 7264 ft 234 kts 50°
2026-04-29 15:53 52.37610 -1.95716 7169 ft 226 kts 50°
2026-04-29 15:53 52.38768 -1.93981 7071 ft 227 kts 42°
2026-04-29 15:54 52.40189 -1.92834 6899 ft 238 kts 22°
2026-04-29 15:54 52.41873 -1.92430 6463 ft 247 kts 12°
2026-04-29 15:54 52.43581 -1.92160 6050 ft 245 kts 13°
2026-04-29 15:54 52.45262 -1.91899 5665 ft 240 kts 13°
2026-04-29 15:55 52.46913 -1.91641 5304 ft 237 kts 14°
2026-04-29 15:55 52.48551 -1.91381 4916 ft 234 kts 14°
2026-04-29 15:55 52.50159 -1.91123 4545 ft 230 kts 14°
2026-04-29 15:55 52.51744 -1.90865 4171 ft 226 kts 14°
2026-04-29 15:56 52.53276 -1.90611 3832 ft 217 kts 16°
2026-04-29 15:56 52.54571 -1.89739 3500 ft 191 kts 51°
2026-04-29 15:56 52.55163 -1.87950 3219 ft 173 kts 83°
2026-04-29 15:56 52.55016 -1.86075 2845 ft 167 kts 111°
2026-04-29 15:57 52.54228 -1.84652 2378 ft 174 kts 139°
2026-04-29 15:57 52.53241 -1.83567 2031 ft 165 kts 139°
2026-04-29 15:57 52.52341 -1.82568 1796 ft 147 kts 138°
2026-04-29 15:57 52.51537 -1.81670 1590 ft 138 kts 137°
2026-04-29 15:58 52.50759 -1.80799 1421 ft 133 kts 136°
2026-04-29 15:58 52.49996 -1.79947 1251 ft 132 kts 136°
2026-04-29 15:58 52.49235 -1.79095 1058 ft 133 kts 136°
2026-04-29 15:58 52.48466 -1.78241 853 ft 134 kts 136°
2026-04-29 15:59 52.47705 -1.77392 695 ft 131 kts 137°
2026-04-29 15:59 52.46957 -1.76559 503 ft 129 kts 135°
2026-04-29 15:59 52.46217 -1.75734 326 ft 128 kts 134°
2026-04-29 15:59 52.45613 -1.75052 325 ft 68 kts 146°
2026-04-29 16:00 52.45420 -1.74839 323 ft 16 kts 143°
2026-04-29 16:00 52.45407 -1.74752 326 ft 8 kts 62°
2026-04-29 16:00 52.45437 -1.74672 324 ft 10 kts 58°
2026-04-29 16:00 52.45468 -1.74582 323 ft 6 kts 75°
2026-04-29 16:01 52.45455 -1.74507 322 ft 8 kts 116°
2026-04-29 16:01 52.45427 -1.74415 323 ft 10 kts 116°
2026-04-29 16:01 52.45392 -1.74300 322 ft 12 kts 116°
2026-04-29 16:01 52.45351 -1.74170 323 ft 14 kts 117°
2026-04-29 16:02 52.45315 -1.74054 323 ft 8 kts 116°
2026-04-29 16:02 52.45320 -1.73961 323 ft 9 kts 57°
2026-04-29 16:02 52.45357 -1.73869 323 ft 8 kts 56°
2026-04-29 16:02 52.45367 -1.73804 323 ft 6 kts 121°
2026-04-29 16:03 52.45331 -1.73758 323 ft 6 kts 145°
2026-04-29 16:03 52.45311 -1.73736 323 ft 2 kts 146°
2026-04-29 16:03 52.45309 -1.73734 323 ft 0 kts 146°